Location: B
(0.0000°N, 0.0000°E)
Time: 06:40:16
(UTC+01:00)

Daily predictions for brighter satellites

Satellite Brightness Start Highest point End
(mag) Time Altitude Azimuth Time Altitude Azimuth Time Altitude Azimuth
CZ-3C R/B 3.7 19:34:50 10° WSW 19:36:48 12° SW 19:38:08 10° S
Cosmos 1048 Rocket 4.2 19:31:45 10° SSW 19:37:08 81° WNW 19:42:29 10° N
MOS 1 4.4 19:32:55 10° SSE 19:38:25 55° ENE 19:43:54 10° N
FREGAT/IRIS 4.3 19:43:01 10° ESE 19:44:46 15° E 19:46:31 10° NE
ALOS 2.4 19:40:37 10° S 19:45:18 85° W 19:49:58 10° NNW
NOAA 12 4.1 19:40:34 10° SSE 19:45:47 66° ENE 19:51:01 10° N
Meteor 1-27 Rocket 4.2 19:39:57 10° NNW 19:45:50 71° W 19:51:43 10° S
Cosmos 2056 Rocket 4.0 19:41:20 10° N 19:46:21 39° ENE 19:51:20 10° SE
ISS -0.4 19:48:37 10° W 19:50:01 12° SW 19:51:24 10° SSW
ARIANE 5 DEB (SYLDA) 3.2 19:45:04 10° W 19:50:20 78° N 19:54:39 13° E
ARIANE 5 R/B 2.2 19:49:31 10° W 19:52:26 73° S 20:04:17 12° E
Cosmos 1908 Rocket 4.1 19:51:19 10° SSW 19:55:43 63° W 20:00:07 10° N
YAOGAN 1 4.4 19:52:37 10° S 19:56:36 36° WSW 20:00:34 10° NW
FENGYUN 3A 4.1 19:55:16 10° S 20:00:35 65° WSW 20:05:55 10° NNW
Ariane H10 3.9 19:58:26 10° W 20:01:59 85° N 20:10:44 16° E
NOSS 0 Rocket 4.0 19:56:57 10° N 20:02:59 56° ENE 20:09:05 10° SSE
Cosmos 2219 Rocket 2.3 19:59:45 10° NNW 20:05:22 81° WSW 20:10:59 10° SSE
SJ-6B 4.1 20:04:02 10° SE 20:11:43 - NNE 20:05:58 19° E
Iridium 4 Rocket 3.2 20:03:10 10° NNE 20:07:20 45° E 20:11:20 10° SSE
Tsikada Rocket 4.0 20:04:23 10° S 20:10:42 70° E 20:17:02 10° N
Cosmos 1674 Rocket 3.4 20:06:46 10° N 20:11:02 71° E 20:15:19 10° S
Cosmos 1624 Rocket 4.0 20:10:18 10° NNW 20:15:29 85° WSW 20:20:41 10° S
Cosmos 2237 Rocket 2.2 20:13:46 10° N 20:19:15 56° ENE 20:24:46 10° SSE
CRYOSAT 2 4.2 20:18:12 10° N 20:23:02 80° E 20:27:54 10° S
Meteor 1-4 Rocket 2.2 20:20:03 10° S 20:23:29 72° E 20:25:40 21° NNE
Envisat 3.7 20:20:06 10° SE 20:24:30 30° ENE 20:28:54 10° NNE
H-2A R/B 3.4 20:20:52 10° S 20:24:42 57° W 20:28:32 10° NNW
Okean 3 3.4 20:24:46 10° N 20:28:56 82° W 20:33:09 10° S
OAO 1 Rocket 4.4 20:29:01 10° NW 20:34:24 89° NE 20:37:11 29° SE
COSMOS 2455 3.5 20:30:27 10° SSW 20:36:17 55° WNW 20:42:08 10° N
Meteor 1-11 Rocket 3.6 20:34:15 10° S 20:39:46 88° W 20:45:18 10° N
Cosmos 2263 Rocket 2.1 20:36:43 10° SSW 20:42:17 84° WNW 20:46:15 20° NNE
Meteor 1-18 Rocket 4.1 20:39:07 10° N 20:44:39 88° E 20:50:14 10° S
CZ-3C R/B 4.2 20:41:14 10° NNW 20:45:00 16° NNE 20:45:42 16° NNE
ERS-2 3.3 20:42:48 10° S 20:46:18 42° WSW 20:49:48 10° NNW
Cosmos 1536 3.2 20:45:02 10° S 20:48:06 51° S 20:48:06 51° S
Meteor 1-5 Rocket 4.1 20:45:21 10° S 20:50:58 77° E 20:53:45 32° NNE
Cosmos 1464 Rocket 4.4 20:47:03 10° NNW 20:53:05 63° W 20:59:14 10° S
Cosmos 2333 Rocket 4.2 20:49:41 10° NW 20:54:26 28° WSW 20:59:13 10° SSW
ARIANE 5 DEB (SYLDA) 3.7 20:28:29 10° W 20:55:36 84° N 20:57:51 48° E
Meteosat 1 Rocket2 4.0 20:50:34 10° WSW 20:56:13 89° SSE 20:58:23 51° ENE
Lacrosse 5 rocket 2.1 20:54:27 10° SW 20:57:57 46° WNW 20:57:57 46° WNW
Aurora 2 Rocket 3.6 21:06:06 10° W 21:10:35 48° NNW 21:10:35 48° NNW
ATLAS 2A CENTAUR R/B 3.8 21:14:16 10° NW 21:17:24 21° NNW 21:17:24 21° NNW
Ariane H10 3.0 21:06:25 10° W 21:20:24 66° SSW 21:20:24 66° SSW
